Terminal Aerodrome Forecast
Issued by NWS

Home | Current Version | Previous Version | Text Only | Print | Product List | Glossary On
Versions: 1 2 3 4 5 6 7 8 9 10 11 12 13 14 15 16 17 18 19 20 21 22 23 24 25 26 27 28 29 30
000
FTUS45 KGJT 201136
TAFCNY
TAF
KCNY 201136Z 2012/2112 VRB03KT P6SM FEW100
     FM201900 23010G20KT P6SM SCT090 SCT120
     FM210000 27012G20KT P6SM SCT090 BKN150
     FM210400 VRB03KT P6SM SCT110=

USA.gov is the U.S. government's official web portal to all federal, state and local government web resources and services.